This is the latest recevied weather packets stored in our database for station/object WI0K. If no packets are shown the sender has not sent any weather packets the latest 10 day(s).
| Time | Temp. | Humidity | Pressure | Rain* | Wind** | Luminosity | Snow |
|---|---|---|---|---|---|---|---|
| 1777862325 | 17.78° C | 27% | 1012.3 hPa | 0 mm | - | 0 W/m² | - |
| 1777862024 | 17.78° C | 26% | 1012.3 hPa | 0 mm | - | 0 W/m² | - |
| 1777861723 | 17.78° C | 25% | 1012.3 hPa | 0 mm | - | 0 W/m² | - |
| 1777861423 | 17.78° C | 26% | 1012.3 hPa | 0 mm | - | 0 W/m² | - |
| 1777861122 | 18.33° C | 25% | 1012.4 hPa | 0 mm | - | 0 W/m² | - |
| 1777860821 | 17.78° C | 23% | 1012.3 hPa | 0 mm | - | 0 W/m² | - |
| 1777860521 | 17.78° C | 27% | 1012.4 hPa | 0 mm | - | 0 W/m² | - |
| 1777860220 | 17.78° C | 26% | 1012.3 hPa | 0 mm | - | 0 W/m² | - |
| 1777859919 | 17.78° C | 26% | 1012.3 hPa | 0 mm | - | 1 W/m² | - |
| 1777859619 | 17.78° C | 26% | 1012.4 hPa | 0 mm | - | 1 W/m² | - |
| 1777859318 | 18.33° C | 26% | 1012.4 hPa | 0 mm | - | 2 W/m² | - |
| 1777859017 | 18.33° C | 27% | 1012.4 hPa | 0 mm | - | 3 W/m² | - |
| 1777858717 | 18.33° C | 25% | 1012.2 hPa | 0 mm | - | 5 W/m² | - |
| 1777858416 | 18.33° C | 25% | 1012.3 hPa | 0 mm | - | 9 W/m² | - |
| 1777858116 | 18.33° C | 25% | 1012.4 hPa | 0 mm | - | 16 W/m² | - |
| 1777857815 | 18.33° C | 25% | 1012.5 hPa | 0 mm | - | 19 W/m² | - |
| 1777857514 | 18.33° C | 25% | 1012.5 hPa | 0 mm | - | 21 W/m² | - |
| 1777857213 | 18.89° C | 25% | 1012.6 hPa | 0 mm | - | 24 W/m² | - |
| 1777856913 | 18.89° C | 25% | 1012.8 hPa | 0 mm | - | 30 W/m² | - |
| 1777856612 | 19.44° C | 25% | 1012.8 hPa | 0 mm | - | 35 W/m² | - |
| 1777856311 | 19.44° C | 24% | 1012.6 hPa | 0 mm | - | 41 W/m² | - |
| 1777856011 | 19.44° C | 23% | 1012.8 hPa | 0 mm | - | 47 W/m² | - |
| 1777855710 | 19.44° C | 23% | 1012.8 hPa | 0 mm | - | 56 W/m² | - |
| 1777855409 | 19.44° C | 23% | 1012.9 hPa | 0 mm | - | 70 W/m² | - |
| 1777855109 | 19.44° C | 23% | 1012.8 hPa | 0 mm | - | 81 W/m² | - |
* Rain latest hour (hover to see other rain measurements)
** Current wind speed in m/s (hover to see current wind gust speed)